Погода в Акулово

Россия / Алтайский край     53°55′02″N   84°01′15″E
темп.,
°C
ветер,
м/с
пор.,
м/с
влажн.,
%
обл.,
%
осадки,
мм/ч
давл.,
гПа
погр.,
м
15 июня, вт
вт1501:00+10ссв2276100 0.0 101911
04:00+9с11785 0.0 101910
07:00+12с12755 0.0 101974
10:00+19зсз125641 0.0 1018624
13:00+22з234937 0.0 10171407
16:00+23з3353100 0.0 10161548
19:00+22зюз33665 0.1 1014598
22:00+16юз228793 0.7 101525
16 июня, ср
ср1601:00+14зюз229333 1.3 101518
04:00+14зюз22945 0.0 101419
07:00+16зюз24935 0.0 1014118
10:00+21зюз34720 0.0 1014564
13:00+25з34555 0.1 10141607
16:00+26з34473 0.0 10121530
19:00+19ю598466 1.4 1013243
22:00+15ююз1185100 0.7 101211
17 июня, чт
чт1701:00+14ююз228599 0.7 101224
04:00+13ю22927 0.0 101118
07:00+16ююв2591100 0.0 1010139
10:00+19ююз4985100 0.6 1010417
13:00+18юз4883100 0.8 1009390
16:00+21юз587494 0.9 1008868
19:00+21зюз258578 3.8 1008393
22:00+16ю11895 1.3 100811
18 июня, пт
пт1801:00+15з22920 1.4 100723
04:00+13з01925 0.0 100710
07:00+15юз11900 0.0 100762
10:00+20зюз23750 0.0 1007611
13:00+23зюз335915 0.1 10061469
16:00+25зсз34510 0.0 10051620
19:00+24зсз12590 0.0 1005898
22:00+19вюв22764 0.0 100412
19 июня, сб
сб1901:00+16юв22824 0.0 100416
04:00+15юв228743 0.0 100414
07:00+17вюв25855 0.0 1003121
10:00+23юв35685 0.0 1003473
13:00+26ююв345772 0.0 1002967
16:00+27юв335392 0.0 10021105
19:00+27в34630 0.0 1000404
22:00+20в11800 0.0 100111